Auburn, AL

9:44 AM CDT on August 17, 2017 (GMT -0500)
Auburn-opelika-pitts

Weather History for KAUO - November, 2013

Change the Weather History Date:

Friday, November 8, 2013

  Actual Average Record
Temperature  
Mean Temperature 51 °F -  
Max Temperature 63 °F - 83 °F (1986)
Min Temperature 39 °F - 28 °F (1967)
Degree Days  
Heating Degree Days 14    
Month to date heating degree days 70  
Since 1 July heating degree days 106  
Moisture  
Dew Point 28 °F    
Average Humidity 48    
Maximum Humidity 75    
Minimum Humidity 26    
Precipitation  
Precipitation 0.00 in - 0.80 in (2000)
Month to date precipitation 0.55  
Year to date precipitation 40.01  
Sea Level Pressure  
Sea Level Pressure 30.27 in    
Wind  
Wind Speed 9 mph (NNE)    
Max Wind Speed 14 mph    
Max Gust Speed 22 mph    
Visibility 10 miles    
Events      
T = Trace of Precipitation, MM = Missing Value Source: NWS Daily Summary

Daily Weather History Graph

Daily Weather History Graph

Search for Another Location

Airport or City:

Trip Planner

Search our weather history database for the weather conditions in past years. The results will help you decide how hot, cold, wet, or windy it might be!

Date:

Astronomy

Nov. 08, 2013 Rise Set
Actual Time 6:05 AM CST 4:45 PM CST
Civil Twilight 5:39 AM CST 5:10 PM CST
Nautical Twilight 5:10 AM CST 5:40 PM CST
Astronomical Twilight 4:41 AM CST 6:09 PM CST
Moon 11:00 AM CST (11/8) 10:04 PM CST (11/8)
Length of Visible Light 11h 31m
Length of Day
10h 39m
Waxing Crescent, 33% of the Moon is Illuminated
Nov 8
Waxing Crescent
Nov 9
First Quarter
Nov 17
Full
Nov 25
Last Quarter
Dec 2
New

Hourly Weather History & Observations

Time (CST) Temp. Windchill Dew Point Humidity Pressure Visibility Wind Dir Wind Speed Gust Speed Precip Events Conditions
12:15 AM 39.2 °F 33.6 °F 32.0 °F 75% 30.24 in 10.0 mi North 8.1 mph - N/A   Clear
12:35 AM 39.2 °F 33.6 °F 30.2 °F 70% 30.23 in 10.0 mi North 8.1 mph - N/A   Clear
12:55 AM 39.2 °F 32.5 °F 30.2 °F 70% 30.24 in 10.0 mi North 10.4 mph - N/A   Clear
1:15 AM 39.2 °F 32.5 °F 30.2 °F 70% 30.24 in 10.0 mi North 10.4 mph - N/A   Clear
1:35 AM 41.0 °F 34.3 °F 28.4 °F 61% 30.24 in 10.0 mi North 11.5 mph 16.1 mph N/A   Clear
1:55 AM 41.0 °F 33.5 °F 28.4 °F 61% 30.24 in 10.0 mi North 13.8 mph 18.4 mph N/A   Clear
2:15 AM 41.0 °F 33.9 °F 28.4 °F 61% 30.24 in 10.0 mi North 12.7 mph 17.3 mph N/A   Clear
2:35 AM 41.0 °F 33.5 °F 28.4 °F 61% 30.24 in 10.0 mi North 13.8 mph - N/A   Clear
2:55 AM 39.2 °F 32.0 °F 28.4 °F 65% 30.25 in 10.0 mi North 11.5 mph 18.4 mph N/A   Clear
3:15 AM 39.2 °F 32.0 °F 28.4 °F 65% 30.24 in 10.0 mi North 11.5 mph - N/A   Clear
3:35 AM 39.2 °F 31.6 °F 28.4 °F 65% 30.24 in 10.0 mi North 12.7 mph 19.6 mph N/A   Clear
3:55 AM 39.2 °F 32.0 °F 28.4 °F 65% 30.24 in 10.0 mi North 11.5 mph - N/A   Clear
4:15 AM 39.2 °F 31.6 °F 26.6 °F 61% 30.25 in 10.0 mi North 12.7 mph 18.4 mph N/A   Clear
4:35 AM 39.2 °F 32.0 °F 26.6 °F 61% 30.25 in 10.0 mi North 11.5 mph 18.4 mph N/A   Clear
4:55 AM 39.2 °F 31.6 °F 26.6 °F 61% 30.26 in 10.0 mi North 12.7 mph 19.6 mph N/A   Clear
5:15 AM 39.2 °F 31.6 °F 24.8 °F 56% 30.26 in 10.0 mi North 12.7 mph 20.7 mph N/A   Clear
5:35 AM 39.2 °F 31.6 °F 24.8 °F 56% 30.27 in 10.0 mi NNE 12.7 mph 19.6 mph N/A   Clear
5:55 AM 39.2 °F 31.6 °F 24.8 °F 56% 30.28 in 10.0 mi North 12.7 mph 18.4 mph N/A   Clear
6:15 AM 39.2 °F 31.6 °F 24.8 °F 56% 30.28 in 10.0 mi North 12.7 mph 20.7 mph N/A   Clear
6:35 AM 39.2 °F 31.2 °F 24.8 °F 56% 30.29 in 10.0 mi North 13.8 mph 17.3 mph N/A   Clear
6:55 AM 39.2 °F 31.2 °F 26.6 °F 61% 30.29 in 10.0 mi North 13.8 mph 21.9 mph N/A   Clear
7:15 AM 41.0 °F 33.5 °F 26.6 °F 57% 30.29 in 10.0 mi North 13.8 mph 18.4 mph N/A   Clear
7:35 AM 42.8 °F 36.6 °F 26.6 °F 53% 30.30 in 10.0 mi NNE 11.5 mph 20.7 mph N/A   Clear
7:55 AM 44.6 °F 39.2 °F 26.6 °F 49% 30.32 in 10.0 mi NNE 10.4 mph - N/A   Clear
8:15 AM 46.4 °F 40.4 °F 26.6 °F 46% 30.32 in 10.0 mi NNE 13.8 mph 21.9 mph N/A   Clear
8:35 AM 46.4 °F 40.4 °F 26.6 °F 46% 30.33 in 10.0 mi NNE 13.8 mph 19.6 mph N/A   Clear
8:55 AM 48.2 °F - 26.6 °F 43% 30.34 in 10.0 mi NNE 11.5 mph - N/A   Clear
9:15 AM 50.0 °F - 28.4 °F 43% 30.34 in 10.0 mi NE 12.7 mph 17.3 mph N/A   Clear
9:35 AM 51.8 °F - 28.4 °F 41% 30.33 in 10.0 mi NNE 12.7 mph 17.3 mph N/A   Clear
9:55 AM 53.6 °F - 26.6 °F 35% 30.34 in 10.0 mi ENE 12.7 mph - N/A   Clear
10:15 AM 55.4 °F - 28.4 °F 36% 30.33 in 10.0 mi NE 10.4 mph 17.3 mph N/A   Clear
10:35 AM 53.6 °F - 26.6 °F 35% 30.33 in 10.0 mi ENE 10.4 mph - N/A   Clear
10:55 AM 55.4 °F - 28.4 °F 36% 30.32 in 10.0 mi NNE 8.1 mph - N/A   Clear
11:15 AM 55.4 °F - 28.4 °F 36% 30.31 in 10.0 mi NE 6.9 mph - N/A   Clear
11:35 AM 57.2 °F - 28.4 °F 33% 30.29 in 10.0 mi NNE 5.8 mph - N/A   Clear
11:55 AM 59.0 °F - 28.4 °F 31% 30.28 in 10.0 mi NNE 5.8 mph - N/A   Clear
12:15 PM 60.8 °F - 28.4 °F 29% 30.28 in 10.0 mi NE 4.6 mph - N/A   Clear
12:35 PM 60.8 °F - 28.4 °F 29% 30.27 in 10.0 mi NNE 6.9 mph - N/A   Clear
12:55 PM 60.8 °F - 28.4 °F 29% 30.26 in 10.0 mi North 6.9 mph - N/A   Clear
1:15 PM 60.8 °F - 28.4 °F 29% 30.26 in 10.0 mi NE 4.6 mph - N/A   Clear
1:35 PM 62.6 °F - 26.6 °F 26% 30.25 in 10.0 mi North 8.1 mph - N/A   Clear
1:55 PM 62.6 °F - 26.6 °F 26% 30.25 in 10.0 mi ENE 9.2 mph - N/A   Clear
2:15 PM 62.6 °F - 28.4 °F 27% 30.25 in 10.0 mi North 6.9 mph - N/A   Clear
2:35 PM 62.6 °F - 26.6 °F 26% 30.24 in 10.0 mi NNE 9.2 mph - N/A   Clear
2:55 PM 62.6 °F - 26.6 °F 26% 30.24 in 10.0 mi NNE 11.5 mph - N/A   Clear
3:15 PM 60.8 °F - 26.6 °F 27% 30.24 in 10.0 mi NNE 8.1 mph - N/A   Clear
3:35 PM 60.8 °F - 26.6 °F 27% 30.24 in 10.0 mi NNE 9.2 mph - N/A   Clear
3:55 PM 59.0 °F - 26.6 °F 29% 30.25 in 10.0 mi NNE 9.2 mph - N/A   Clear
4:15 PM 57.2 °F - 26.6 °F 31% 30.24 in 10.0 mi NNE 5.8 mph - N/A   Clear
4:35 PM 55.4 °F - 28.4 °F 36% 30.24 in 10.0 mi NNE 5.8 mph - N/A   Clear
4:55 PM 53.6 °F - 26.6 °F 35% 30.24 in 10.0 mi NNE 5.8 mph - N/A   Clear
5:15 PM 51.8 °F - 26.6 °F 38% 30.24 in 10.0 mi NNE 4.6 mph - N/A   Clear
5:35 PM 51.8 °F - 26.6 °F 38% 30.24 in 10.0 mi NNE 4.6 mph - N/A   Clear
5:55 PM 50.0 °F - 28.4 °F 43% 30.24 in 10.0 mi NE 4.6 mph - N/A   Clear
6:15 PM 50.0 °F - 28.4 °F 43% 30.24 in 10.0 mi NE 5.8 mph - N/A   Clear
6:35 PM 48.2 °F - 28.4 °F 46% 30.24 in 10.0 mi NE 5.8 mph - N/A   Clear
6:55 PM 48.2 °F - 28.4 °F 46% 30.25 in 10.0 mi NNE 5.8 mph - N/A   Clear
7:15 PM 46.4 °F 44.3 °F 28.4 °F 50% 30.25 in 10.0 mi NNE 4.6 mph - N/A   Clear
7:35 PM 44.6 °F 40.7 °F 30.2 °F 57% 30.25 in 10.0 mi NE 6.9 mph - N/A   Clear
7:55 PM 44.6 °F 40.7 °F 28.4 °F 53% 30.26 in 9.0 mi NNE 6.9 mph - N/A   Clear
8:15 PM 44.6 °F 41.4 °F 30.2 °F 57% 30.26 in 10.0 mi NNE 5.8 mph - N/A   Clear
8:35 PM 44.6 °F 40.2 °F 28.4 °F 53% 30.27 in 10.0 mi NNE 8.1 mph - N/A   Clear
8:55 PM 42.8 °F 38.6 °F 30.2 °F 61% 30.27 in 7.0 mi NNE 6.9 mph - N/A   Clear
9:15 PM 42.8 °F 38.6 °F 30.2 °F 61% 30.26 in 5.0 mi NNE 6.9 mph - N/A   Clear
9:35 PM 44.6 °F 40.7 °F 30.2 °F 57% 30.27 in 9.0 mi NE 6.9 mph - N/A   Clear
9:55 PM 44.6 °F 40.2 °F 30.2 °F 57% 30.26 in 10.0 mi NE 8.1 mph - N/A   Clear
10:15 PM 46.4 °F 42.9 °F 30.2 °F 53% 30.26 in 10.0 mi NE 6.9 mph - N/A   Clear
10:35 PM 46.4 °F 42.4 °F 28.4 °F 50% 30.26 in 10.0 mi NE 8.1 mph - N/A   Clear
10:55 PM 46.4 °F 43.5 °F 28.4 °F 50% 30.27 in 10.0 mi NE 5.8 mph - N/A   Clear
11:15 PM 46.4 °F 42.9 °F 28.4 °F 50% 30.27 in 10.0 mi NE 6.9 mph - N/A   Clear
11:35 PM 44.6 °F 42.2 °F 28.4 °F 53% 30.27 in 10.0 mi NE 4.6 mph - N/A   Clear
11:55 PM 44.6 °F 42.2 °F 28.4 °F 53% 30.27 in 10.0 mi NE 4.6 mph - N/A   Clear